Location: Auttagershofen
(48.1940°N, 10.0237°E)
Time: 06:50:23
(UTC+00:00)

SL-12 R/B(2) - Pass Details

Date: 18 January 2026
Orbit: 1171 x 2178 km, 63.4° (Epoch: 17 February)

Event Time Altitude Azimuth Distance (km) Brightness Sun altitude
Rises 05:33:05 0° 228° (SW) 4,205 6.5 -14.7°
Reaches altitude 10° 05:35:41 10° 231° (SW) 3,318 5.9 -14.3°
Maximum altitude 05:43:44 73° 316° (NW) 1,547 4.4 -13.0°
Drops below altitude 10° 05:53:46 10° 41° (NE) 4,060 7.0 -11.4°
Sets 05:57:17 0° 44° (NE) 5,196 7.6 -10.8°
